sat.trackr.live / text

‹ back to catalog

STARLINK-5278

NORAD 54164 · 2022-141H

PAYLOAD ACTIVE UNKNOWN

§ Identity

Operator
Country
US
Launch date
2022-10-28
Launch site
AFWTR
Launch vehicle
Mass (kg)
RCS (m²)

Purposes: comms

External: N2YO · Heavens-Above · Gunter

§ Orbital elements

Epoch: 2026-09-20T04:37:05.119968Z

Period
93.85 min
Inclination
53.1580°
Eccentricity
0.0002695
Mean motion
15.34394570 rev/d
Perigee alt
460.9 km
Apogee alt
464.6 km
Semi-major
6,840.9 km
B*
-1.0308e-4
RAAN
195.3801°
Arg perigee
64.4731°
Mean anomaly
295.6550°
Rev number
21,543

§ Raw data

STARLINK-52781 54164U 22141H   26263.19242037 -.00003858  00000+0 -10308-3 0  99972 54164  53.1580 195.3801 0002695  64.4731 295.6550 15.34394570215436

JSON: /api/v1/satellites/54164 · /tle

For live sub-satellite position, see the globe view (requires WebGL).

§ Visibility from observer

Set your observer location to see the next 7 days of passes ≥ 10°. The values pass through the URL so the page stays shareable.

No JS? Fill the form by hand. The geolocation button needs JavaScript.